When you browse on this site, cookies collect data to enhance your experience and personalize the content and advertising you see.
Visit our Privacy Policy to learn more. By continuing to use the site, you agree to this use of cookies and data.
  • In Czech Republic
  • List of Countries
  • For 7 days
  • Water Temperature
  • Satellite Maps
  • Weather Map
  • Weather Widgets
  • user-avatar
    Login

    Hourly Weather Catió

    Today, 13 December, Thursday

    Time Temperature Precipitation Wind Pressure Humidity
    00:00 +26°C° 0 mm 3 mps 759 mmHg 51%
    01:00 +26°C° 0 mm 3 mps 758 mmHg 53%
    02:00 +25°C° 0 mm 2 mps 758 mmHg 56%
    03:00 +25°C° 0 mm 2 mps 758 mmHg 56%
    04:00 +24°C° 0 mm 2 mps 758 mmHg 56%
    05:00 +24°C° 0 mm 2 mps 758 mmHg 56%
    06:00 +26°C° 0 mm 1 mps 759 mmHg 50%
    07:00 +27°C° 0 mm 1 mps 759 mmHg 44%
    08:00 +29°C° 0 mm 1 mps 759 mmHg 38%
    09:00 +32°C° 0 mm 1 mps 759 mmHg 32%
    10:00 +35°C° 0 mm 1 mps 759 mmHg 26%
    11:00 +36°C° 0 mm 0 mps 759 mmHg 20%
    12:00 +39°C° 0 mm 1 mps 759 mmHg 21%
    13:00 +39°C° 0 mm 2 mps 758 mmHg 22%
    14:00 +39°C° 0 mm 3 mps 758 mmHg 24%
    15:00 +38°C° 0 mm 3 mps 758 mmHg 28%
    16:00 +36°C° 0 mm 4 mps 758 mmHg 32%
    17:00 +34°C° 0 mm 4 mps 757 mmHg 37%
    18:00 +32°C° 0 mm 4 mps 758 mmHg 43%
    19:00 +30°C° 0 mm 4 mps 758 mmHg 49%
    20:00 +28°C° 0 mm 4 mps 759 mmHg 55%
    21:00 +28°C° 0 mm 3 mps 759 mmHg 57%
    22:00 +28°C° 0 mm 3 mps 759 mmHg 60%
    23:00 +27°C° 0 mm 3 mps 760 mmHg 63%

    Tomorrow, 14 December, Friday

    Time Temperature Precipitation Wind Pressure Humidity
    00:00 +27°C° 0 mm 2 mps 759 mmHg 66%
    01:00 +27°C° 0 mm 2 mps 759 mmHg 68%
    02:00 +26°C° 0 mm 1 mps 759 mmHg 70%
    03:00 +26°C° 0 mm 1 mps 759 mmHg 71%
    04:00 +26°C° 0 mm 1 mps 759 mmHg 73%
    05:00 +26°C° 0 mm 2 mps 759 mmHg 74%
    06:00 +27°C° 0 mm 2 mps 759 mmHg 68%
    07:00 +29°C° 0 mm 2 mps 760 mmHg 63%
    08:00 +30°C° 0 mm 2 mps 760 mmHg 57%
    09:00 +34°C° 0 mm 2 mps 760 mmHg 47%
    10:00 +35°C° 0 mm 1 mps 760 mmHg 38%
    11:00 +39°C° 0 mm 1 mps 760 mmHg 28%
    12:00 +39°C° 0 mm 2 mps 759 mmHg 26%
    13:00 +40°C° 0 mm 2 mps 759 mmHg 25%
    14:00 +40°C° 0 mm 3 mps 758 mmHg 24%
    15:00 +39°C° 0 mm 3 mps 758 mmHg 29%
    16:00 +37°C° 0 mm 4 mps 758 mmHg 34%
    17:00 +35°C° 0 mm 4 mps 758 mmHg 39%
    18:00 +34°C° 0 mm 4 mps 758 mmHg 44%
    19:00 +33°C° 0 mm 4 mps 759 mmHg 48%
    20:00 +30°C° 0 mm 4 mps 759 mmHg 53%
    21:00 +30°C° 0 mm 3 mps 760 mmHg 56%
    22:00 +30°C° 0 mm 3 mps 760 mmHg 59%
    23:00 +29°C° 0 mm 2 mps 760 mmHg 63%

    Day after tomorrow, 15 December, Saturday

    Time Temperature Precipitation Wind Pressure Humidity
    00:00 +28°C° 0 mm 2 mps 760 mmHg 64%
    01:00 +28°C° 0 mm 3 mps 759 mmHg 66%
    02:00 +27°C° 0 mm 3 mps 759 mmHg 67%
    03:00 +27°C° 0 mm 3 mps 759 mmHg 62%
    04:00 +26°C° 0 mm 4 mps 759 mmHg 56%
    05:00 +26°C° 0 mm 4 mps 759 mmHg 51%
    06:00 +27°C° 0 mm 5 mps 760 mmHg 42%
    07:00 +28°C° 0 mm 5 mps 760 mmHg 33%
    08:00 +30°C° 0 mm 5 mps 761 mmHg 24%
    09:00 +34°C° 0 mm 5 mps 761 mmHg 20%
    10:00 +37°C° 0 mm 5 mps 760 mmHg 16%
    11:00 +41°C° 0 mm 5 mps 760 mmHg 13%
    12:00 +41°C° 0 mm 4 mps 759 mmHg 12%
    13:00 +42°C° 0 mm 4 mps 759 mmHg 12%
    14:00 +43°C° 0 mm 3 mps 758 mmHg 12%
    15:00 +40°C° 0 mm 3 mps 758 mmHg 17%
    16:00 +38°C° 0 mm 4 mps 758 mmHg 23%
    17:00 +37°C° 0 mm 4 mps 758 mmHg 28%
    18:00 +34°C° 0 mm 3 mps 758 mmHg 36%
    19:00 +31°C° 0 mm 3 mps 759 mmHg 45%
    20:00 +29°C° 0 mm 2 mps 759 mmHg 53%
    21:00 +28°C° 0 mm 2 mps 760 mmHg 58%
    22:00 +27°C° 0 mm 2 mps 760 mmHg 63%
    23:00 +27°C° 0 mm 2 mps 760 mmHg 68%

    16 December, Sunday

    Time Temperature Precipitation Wind Pressure Humidity
    00:00 +26°C° 0 mm 2 mps 760 mmHg 66%
    01:00 +26°C° 0 mm 2 mps 759 mmHg 63%
    02:00 +25°C° 0 mm 2 mps 759 mmHg 61%
    03:00 +25°C° 0 mm 2 mps 759 mmHg 51%
    04:00 +25°C° 0 mm 3 mps 759 mmHg 42%
    05:00 +23°C° 0 mm 4 mps 759 mmHg 33%
    06:00 +26°C° 0 mm 5 mps 759 mmHg 27%
    07:00 +27°C° 0 mm 6 mps 759 mmHg 21%
    08:00 +29°C° 0 mm 6 mps 760 mmHg 15%
    09:00 +33°C° 0 mm 6 mps 760 mmHg 13%
    10:00 +36°C° 0 mm 5 mps 759 mmHg 10%
    11:00 +40°C° 0 mm 5 mps 759 mmHg 8%
    12:00 +41°C° 0 mm 4 mps 758 mmHg 8%
    13:00 +42°C° 0 mm 4 mps 758 mmHg 9%
    14:00 +43°C° 0 mm 3 mps 757 mmHg 9%
    15:00 +40°C° 0 mm 3 mps 757 mmHg 15%
    16:00 +37°C° 0 mm 3 mps 757 mmHg 22%
    17:00 +35°C° 0 mm 3 mps 757 mmHg 29%
    18:00 +33°C° 0 mm 3 mps 758 mmHg 39%
    19:00 +30°C° 0 mm 3 mps 758 mmHg 50%
    20:00 +27°C° 0 mm 3 mps 759 mmHg 60%
    21:00 +27°C° 0 mm 3 mps 759 mmHg 64%
    22:00 +27°C° 0 mm 3 mps 759 mmHg 68%
    23:00 +26°C° 0 mm 3 mps 759 mmHg 73%

    17 December, Monday

    Time Temperature Precipitation Wind Pressure Humidity
    00:00 +26°C° 0 mm 3 mps 759 mmHg 74%
    01:00 +26°C° 0 mm 2 mps 758 mmHg 76%
    02:00 +25°C° 0 mm 2 mps 758 mmHg 77%
    03:00 +25°C° 0 mm 2 mps 758 mmHg 78%
    04:00 +25°C° 0 mm 2 mps 758 mmHg 79%
    05:00 +24°C° 0 mm 2 mps 758 mmHg 80%
    06:00 +26°C° 0 mm 2 mps 758 mmHg 74%
    07:00 +27°C° 0 mm 2 mps 759 mmHg 67%
    08:00 +29°C° 0 mm 3 mps 759 mmHg 61%
    09:00 +31°C° 0 mm 2 mps 759 mmHg 50%
    10:00 +35°C° 0 mm 2 mps 759 mmHg 40%
    11:00 +37°C° 0 mm 2 mps 759 mmHg 29%
    12:00 +38°C° 0 mm 3 mps 758 mmHg 28%
    13:00 +38°C° 0 mm 3 mps 757 mmHg 27%
    14:00 +39°C° 0 mm 3 mps 756 mmHg 27%
    15:00 +37°C° 0 mm 4 mps 757 mmHg 32%
    16:00 +36°C° 0 mm 4 mps 757 mmHg 37%
    17:00 +34°C° 0 mm 5 mps 757 mmHg 43%
    18:00 +32°C° 0 mm 5 mps 757 mmHg 50%
    19:00 +30°C° 0 mm 4 mps 758 mmHg 58%
    20:00 +28°C° 0 mm 4 mps 759 mmHg 65%
    21:00 +28°C° 0 mm 4 mps 759 mmHg 68%
    22:00 +27°C° 0 mm 4 mps 759 mmHg 70%
    23:00 +27°C° 0 mm 3 mps 759 mmHg 73%

    18 December, Tuesday

    Time Temperature Precipitation Wind Pressure Humidity
    00:00 +27°C° 0 mm 3 mps 759 mmHg 74%
    01:00 +26°C° 0 mm 2 mps 758 mmHg 76%
    02:00 +26°C° 0 mm 2 mps 758 mmHg 77%
    03:00 +26°C° 0 mm 2 mps 758 mmHg 79%
    04:00 +25°C° 0 mm 2 mps 758 mmHg 80%
    05:00 +25°C° 0 mm 1 mps 758 mmHg 81%
    06:00 +27°C° 0 mm 1 mps 759 mmHg 75%
    07:00 +28°C° 0 mm 1 mps 759 mmHg 69%
    08:00 +28°C° 0 mm 0 mps 760 mmHg 62%
    09:00 +31°C° 0 mm 0 mps 759 mmHg 52%
    10:00 +35°C° 0 mm 1 mps 759 mmHg 42%
    11:00 +39°C° 0 mm 1 mps 759 mmHg 32%
    12:00 +39°C° 0 mm 1 mps 758 mmHg 31%
    13:00 +39°C° 0 mm 2 mps 758 mmHg 30%
    14:00 +40°C° 0 mm 3 mps 757 mmHg 29%
    15:00 +38°C° 0 mm 4 mps 757 mmHg 34%
    16:00 +36°C° 0 mm 4 mps 757 mmHg 40%
    17:00 +34°C° 0 mm 5 mps 757 mmHg 45%
    18:00 +32°C° 0 mm 5 mps 758 mmHg 51%
    19:00 +30°C° 0 mm 5 mps 758 mmHg 56%
    20:00 +28°C° 0 mm 4 mps 759 mmHg 62%
    21:00 +28°C° 0 mm 4 mps 759 mmHg 64%
    22:00 +27°C° 0 mm 4 mps 759 mmHg 67%
    23:00 +27°C° 0 mm 4 mps 759 mmHg 69%
    Show more